Preview of NWS' New Version of Forecast
This preview is not operational and should not be used for support decisions.
Latest weather observations around

St Clair County Airport (KPLR)

Using International System of Units (Switch to English Units)
Date/ Time (CST) Wind (kph) Vis. (km) Weather Sky Cond. Temp (°C) Rel. Humidity Wind Chill (°C) Heat Index (°C) Pressure Precip. (cm)
Air Dwpt 6 hour Altimeter (hPa) Sea level (hPa) 1 hr 3 hr 6 hr
Max Min
Feb 22 05:55 Calm 12.88 Clear   15 15     100%     1028.78        
Feb 22 05:35 Calm 2.82 Clear   15 15     100%     1028.45        
Feb 22 05:15 Calm 4.83 Clear   15 15     100%     1028.11        
Feb 22 04:55 Calm 0.4 Clear   15 15     100%     1028.11        
Feb 22 04:35 Calm   Clear   15 15     100%     1028.11        
Feb 22 04:15 Calm   Clear   15 15     100%     1027.77        
Feb 22 03:55 Calm 9.66 Clear   16 16     100%     1027.77        
Feb 22 03:35 Calm 16.09 Clear   17 17     100%     1027.43        
Feb 22 03:15 Calm 16.09 Clear   17 17     100%     1027.43        
Feb 22 02:55 Calm 16.09 Clear   18 18     100%     1027.09        
Feb 22 02:35 SSW 6 16.09 Clear   19 19     100%     1027.09        
Feb 22 02:15 S 11 16.09 Clear   20 19     94%     1027.09        
Feb 22 01:55 S 13 16.09 Clear   20 19     94%     1027.09        
Feb 22 01:35 SSW 9 16.09 Clear   20 19     94%     1027.09        
Feb 22 01:15 S 11 16.09 Clear   20 19     94%     1027.09        
Feb 22 00:55 S 9 16.09 Clear   20 18     88%     1027.43        
Feb 22 00:35 S 7 16.09 Clear   18 18     100%     1027.43        
Feb 22 00:15 Calm 16.09 Clear   17 17     100%     1027.43        
Notice The following observation data may not be complete
Feb 21 23:55 Calm 16.09 Clear     16      %     1027.43        
Feb 21 23:35 Calm 16.09 Clear   16 16     100%     1027.09        
Feb 21 23:15 Calm 12.88 Clear   15 15     100%     1027.09        
Feb 21 22:55 Calm 4.83 Clear   15 15     100%     1027.09        
Feb 21 22:35 Calm 6.44 Clear   15 15     100%     1027.09        
Feb 21 22:15 Calm 14.48 Clear   16 16     100%     1027.09        
Feb 21 21:55 Calm 1.21 Clear   16 16     100%     1026.75        
Feb 21 21:35 Calm 6.44 Clear   16 16     100%     1026.75        
Feb 21 21:15 Calm 12.88 Clear   16 16     100%     1026.75        
Notice The following observation data may not be complete
Feb 21 20:55 Calm 12.88 Clear     17      %     1026.41        
Notice The following observation data may not be complete
Feb 21 20:35 Calm 14.48 Clear     17      %     1026.41        
Notice The following observation data may not be complete
Feb 21 20:15 Calm 16.09 Clear     17      %     1026.41        
Notice The following observation data may not be complete
Feb 21 19:55 Calm 16.09 Clear     18      %     1026.08        
Notice The following observation data may not be complete
Feb 21 19:35 Calm 16.09 Clear     18      %     1025.74        
Feb 21 19:15 Calm 16.09 Clear   19 18     94%     1025.74        
Notice The following observation data may not be complete
Feb 21 18:55 Calm 16.09 Clear     18      %     1025.74        
Feb 21 18:35 Calm 16.09 Clear   20 18     88%     1025.74        
Feb 21 18:15 Calm 16.09 Clear   21 18     83%     1025.74        
Feb 21 17:55 Calm 16.09 Clear   24 18     69%   24 1025.4        
Feb 21 17:35 S 7 16.09 Clear   25 18     65%   25 1025.4        
Feb 21 17:15 SSE 9 16.09 Clear   25 18     65%   25 1025.06        
Feb 21 16:55 S 11 16.09 Clear   26 18     61%   26 1025.06        
Feb 21 16:35 S 15 16.09 Clear   26 18     61%   26 1025.06        
Feb 21 16:15 S 13 16.09 Clear   26 18     61%   26 1025.06        
Feb 21 15:55 SSE 11 16.09 Clear   26 18     61%   26 1024.72        
Feb 21 15:35 S 17 16.09 Clear   27 18     58%   28 1024.72        
Feb 21 15:15 ESE 13 16.09 Clear   26 19     65%   26 1024.72        
Feb 21 14:55 SSE 15 16.09 Clear   27 19     62%   28 1025.06        
Feb 21 14:35 SSE 9 16.09 Clear   26 19     65%   26 1025.4        
Feb 21 14:15 S 15 16.09 Clear   27 19     62%   28 1025.4        
Feb 21 13:55 SSW 22 16.09 Clear   28 18     55%   29 1025.4        
Feb 21 13:35 SSW 11 16.09 Clear   27 19     62%   28 1025.74        
Feb 21 13:15 SSW 17 16.09 Clear   27 19     62%   28 1026.08        
Feb 21 12:55 SW 11 16.09 Clear   26 19     65%   26 1026.41        
Feb 21 12:35 SW 20 16.09 Clear   27 19     62%   28 1026.41        
Feb 21 12:15 SSW 13 16.09 Clear   26 19     65%   26 1026.75        
Feb 21 11:55 SSW 13 16.09 Clear   25 20     74%   25 1027.09        
Feb 21 11:35 SSW 22 16.09 Clear   27 20     66%   28 1027.43        
Feb 21 11:15 S 15 16.09 Clear   25 20     74%   25 1027.77        
Feb 21 10:55 11 16.09 Clear   25 20     74%   25 1028.11        
Feb 21 10:35 SSW 15 16.09 Clear   25 20     74%   25 1028.45        
Feb 21 10:15 SSW 15 16.09 Clear   24 20     78%   25 1028.45        
Feb 21 09:55 S 15 16.09 Clear   24 20     78%   25 1028.45        
Feb 21 09:35 S 11 16.09 Clear   24 20     78%   25 1028.78        
Feb 21 09:15 S 11 16.09 Clear   23 20     83%   24 1028.78        
Feb 21 08:35 SSW 7 16.09 Clear   21 20     94%     1028.45        
Feb 21 08:15 Calm 16.09 Clear   21 20     94%     1028.45        
Feb 21 07:55 Calm 14.48 Clear   20 20     100%     1028.45        
Feb 21 07:35 Calm 14.48 Clear   20 20     100%     1028.11        
Feb 21 07:15 Calm   Clear   19 19     100%     1027.77        
Feb 21 06:55 Calm 9.66 Clear   18 18     100%     1027.77        
Feb 21 06:35 Calm 9.66 Clear   18 18     100%     1027.43        
Feb 21 06:15 Calm 16.09 Clear   19 19     100%     1027.43        
Feb 21 05:55 Calm 16.09 Clear   20 20     100%     1027.09        
Feb 21 05:35 S 6 16.09 Clear   20 20     100%     1027.09        
Feb 21 05:15 Calm 14.48 Clear   19 19     100%     1027.09        
Feb 21 04:55 Calm 11.27 Clear   18 18     100%     1027.09        
Feb 21 04:35 Calm 16.09 Clear   19 19     100%     1026.75        
Feb 21 04:15 Calm 16.09 Clear   19 19     100%     1026.75        
Feb 21 03:55 Calm 16.09 Clear   20 20     100%     1026.41        
Feb 21 03:35 Calm 16.09 Clear   21 20     94%     1026.41        
Feb 21 03:15 S 6 16.09 Clear   21 20     94%     1026.75        
Feb 21 02:55 S 7 16.09 Clear   21 20     94%     1026.41        
Feb 21 02:35 Calm 16.09 Clear   21 20     94%     1026.41        
Feb 21 02:15 SSW 9 16.09 Clear   21 20     94%     1026.41        
Feb 21 01:55 S 11 16.09 Clear   21 20     94%     1026.41        
Feb 21 01:35 S 9 16.09 Clear   21 20     94%     1026.41        
Feb 21 01:15 S 9 16.09 Clear   21 20     94%     1026.41        
Feb 21 00:55 S 9 16.09 Clear   22 20     88%   23 1026.41        
Feb 21 00:35 S 11 16.09 Clear   22 20     88%   23 1026.41        
Feb 21 00:15 S 7 16.09 Clear   21 20     94%     1026.41        
Feb 20 23:55 Calm 16.09 Clear   21 20     94%     1026.41        
Feb 20 23:35 Calm 16.09 Clear   21 20     94%     1026.41        
Feb 20 23:15 Calm 16.09 Clear   20 19     94%     1026.41        
Feb 20 22:55 Calm 16.09 Clear   21 20     94%     1026.08        
Feb 20 22:35 Calm 16.09 Clear   21 20     94%     1026.08        
Feb 20 22:15 SE 6 16.09 Clear   21 20     94%     1026.08        
Feb 20 21:55 Calm 16.09 Clear   21 19     88%     1025.74        
Feb 20 21:35 Calm   Clear   20 19     94%     1025.74        
Feb 20 21:15 Calm 16.09 Clear   20 19     94%     1025.4        
Feb 20 20:55 Calm 16.09 Clear   21 19     88%     1025.4        
Feb 20 20:35 Calm 16.09 Clear   21 19     88%     1025.4        
Feb 20 20:15 Calm 16.09 Clear   21 19     88%     1025.4        
Feb 20 19:55 SE 6 16.09 Clear   22 19     83%   22 1025.06        
Feb 20 19:35 Calm 16.09 Clear   22 19     83%   22 1025.06        
Feb 20 19:15 Calm 16.09 Clear   22 19     83%   22 1024.72        
Feb 20 18:55 Calm 16.09 Clear   22 19     83%   22 1024.72        
Feb 20 18:35 Calm 16.09 Clear   23 19     78%   23 1024.72        
Feb 20 18:15 6 16.09 Clear   24 19     74%   24 1024.72        
Feb 20 17:55 6 16.09 Clear   24 18     69%   24 1024.72        
Feb 20 17:35 Calm 16.09 Clear   24 18     69%   24 1024.38        
Feb 20 17:15 SE 9 16.09 Clear   24 18     69%   24 1024.38        
Feb 20 16:55 SSE 9 16.09 Clear   25 18     65%   25 1024.38        
Feb 20 16:35 S 11 16.09 Clear   25 18     65%   25 1024.04        
Feb 20 15:55 S 15 16.09 Clear   26 17     58%   26 1023.71        
Feb 20 15:35 SSE 13 16.09 Clear   26 18     61%   26 1023.71        
Feb 20 15:15 SSE 17 16.09 Clear   26 17     58%   26 1023.71        
Feb 20 14:55 S 17 16.09 Clear   26 17     58%   26 1023.71        
Feb 20 14:35 SSE 15 16.09 Clear   26 17     58%   26 1023.71        
Feb 20 14:15 SSE 19 16.09 Clear   26 17     58%   26 1024.04        
Feb 20 13:55 S 19 16.09 Clear   26 17     58%   26 1024.04        
Feb 20 13:35 S 15 16.09 Clear   26 17     58%   26 1024.38        
Feb 20 13:15 S 26 16.09 Clear   27 17     54%   28 1024.38        
Feb 20 12:55 S 9 16.09 Clear   27 18     58%   28 1024.72        
Feb 20 12:35 SSE 20 16.09 Clear   26 18     61%   26 1025.06        
Feb 20 12:15 SSE 19 16.09 Clear   26 18     61%   26 1025.4        
Feb 20 11:55 SSE 17 16.09 Clear   26 19     65%   26 1025.74        
Feb 20 11:35 SSE 9 16.09 Clear   25 19     69%   25 1025.74        
Feb 20 11:15 SSE 15 16.09 Clear   25 19     69%   25 1026.08        
Feb 20 10:55 SSE 19 16.09 Clear   25 19     69%   25 1026.41        
Feb 20 10:35 SSE 13 16.09 Clear   24 19     74%   24 1026.75        
Feb 20 10:15 SSE 15 16.09 Clear   24 19     74%   24 1026.75        
Feb 20 09:55 S 15 16.09 Clear   24 19     74%   24 1026.75        
Feb 20 09:35 SSE 13 16.09 Clear   22 19     83%   22 1026.75        
Feb 20 09:15 SSE 15 16.09 Clear   22 18     78%   22 1026.75        
Feb 20 08:55 6 14.48 Clear   22 18     78%   22 1026.75        
Feb 20 08:35 SSE 13 16.09 Clear   21 17     78%     1026.75        
Feb 20 08:15 SSE 13 16.09 Clear   21 17     78%     1026.41        
Feb 20 07:55 SE 7 16.09 Clear   20 17     83%     1026.08        
Feb 20 07:35 SSE 7 16.09 Clear   19 16     83%     1026.08        
Feb 20 07:15 Calm 16.09 Clear   18 16     88%     1025.74        
Feb 20 06:55 Calm 16.09 Clear   18 16     88%     1025.74        
Feb 20 06:35 Calm 16.09 Clear   18 16     88%     1025.74        
Feb 20 06:15 SE 7 16.09 Clear   18 16     88%     1025.74        
Feb 20 05:55 7 16.09 Clear   18 16     88%     1025.74        
Feb 20 05:35 SE 9 16.09 Clear   18 16     88%     1025.74        
Feb 20 05:15 ESE 9 16.09 Clear   18 16     88%     1025.74        
Feb 20 04:55 Calm 16.09 Clear   16 16     100%     1025.74        
Feb 20 04:35 Calm 16.09 Clear   17 16     94%     1025.74        
Feb 20 04:15 SE 6 16.09 Clear   17 16     94%     1025.4        
Feb 20 03:55 Calm 1.21 Clear   13 13     100%     1025.4        
Feb 20 03:35 Calm 3.22 Clear   12 12     100%     1025.4        
Feb 20 03:15 Calm 0.8 Clear   13 13     100%     1025.4        
Notice The following observation data may not be complete
Feb 20 02:55 Calm 2.82 Clear     13      %     1025.06        
Notice The following observation data may not be complete
Feb 20 02:35 Calm   Clear     13      %     1025.06        
Feb 20 02:15 Calm 0.8 Clear   14 14     100%     1025.4        
Notice The following observation data may not be complete
Feb 20 01:55 Calm 9.66 Clear     15      %     1025.06        
Notice The following observation data may not be complete
Feb 20 01:35 Calm 16.09 Clear     15      %     1025.06        
Feb 20 01:15 Calm 16.09 Clear   16 16     100%     1025.06        
Feb 20 00:55 Calm 16.09 Clear   17 17     100%     1025.06        
Feb 20 00:35 Calm 16.09 Clear   19 17     88%     1025.06        
Feb 20 00:15 S 7 16.09 Clear   21 17     78%     1025.06        
Feb 19 23:55 Calm 16.09 Clear   19 16     83%     1024.72        
Feb 19 23:35 7 16.09 Clear   21 17     78%     1024.72        
Notice The following observation data may not be complete
Feb 19 23:15 Calm 16.09 Clear     16      %     1024.72        
Notice The following observation data may not be complete
Feb 19 22:55 Calm 16.09 Clear     16      %     1024.72        
Notice The following observation data may not be complete
Feb 19 22:35 Calm 16.09 Clear     16      %     1024.38        
Notice The following observation data may not be complete
Feb 19 21:55 Calm 16.09 Clear     16      %     1024.38        
Notice The following observation data may not be complete
Feb 19 21:35 Calm   Clear     16      %     1024.38        
Feb 19 21:15 Calm 16.09 Clear   17 16     94%     1024.04        
Feb 19 20:55 Calm 16.09 Clear   17 16     94%     1024.04        
Feb 19 20:35 Calm 16.09 Clear   17 16     94%     1024.04        
Feb 19 20:15 Calm 16.09 Clear   17 16     94%     1023.71        
Notice The following observation data may not be complete
Feb 19 19:55 Calm 16.09 Clear     16      %     1023.71        
Feb 19 19:35 Calm 16.09 Clear   19 16     83%     1023.37        
Notice The following observation data may not be complete
Feb 19 19:15 Calm 16.09 Clear     16      %     1023.37        
Feb 19 18:55 Calm 16.09 Clear   18 16     88%     1023.37        
Feb 19 18:35 Calm 16.09 Clear   19 16     83%     1023.37        
Feb 19 18:15 Calm 16.09 Clear   19 16     83%     1023.37        
Feb 19 17:55 Calm 16.09 Clear   20 16     78%     1023.03        
Feb 19 17:35 Calm 16.09 Clear   22 16     69%   22 1023.03        
Feb 19 17:15 Calm 16.09 Clear   23 15     61%   23 1023.03        
Feb 19 16:55 Calm 16.09 Clear   24 15     57%   24 1023.03        
Feb 19 16:35 S 7 16.09 Clear   24 15     57%   24 1022.69        
Feb 19 16:15 S 9 16.09 Clear   25 15     54%   25 1022.69        
Feb 19 15:55 S 13 16.09 Clear   25 15     54%   25 1022.69        
Feb 19 15:35 SSW 20 16.09 Clear   25 14     50%   25 1022.35        
Feb 19 15:15 SSW 15 16.09 Clear   25 14     50%   25 1022.35        
Feb 19 14:55 SSW 19 16.09 Clear   26 14     48%   26 1022.35        
Feb 19 14:35 S 17 16.09 Clear   25 14     50%   25 1022.35        
Feb 19 14:15 S 15 16.09 Clear   25 14     50%   25 1022.69        
Feb 19 13:55 S 15 16.09 Clear   25 15     54%   25 1022.69        
Feb 19 13:35 S 22 16.09 Clear   25 14     50%   25 1022.69        
Feb 19 13:15 S 15 16.09 Clear   25 16     57%   25 1023.03        
Feb 19 12:55 S 26 16.09 Clear   25 16     57%   25 1023.37        
Feb 19 12:15 S 17 16.09 Clear   24 18     69%   24 1024.04        
Feb 19 11:55 SSE 15 16.09 Clear   23 18     73%   23 1024.38        
Feb 19 11:35 S 19 16.09 Clear   22 19     83%   22 1025.06        
Feb 19 11:15 9 16.09 Clear   21 19     88%     1025.4        
Feb 19 10:55 S 11 16.09 Clear   21 19     88%     1025.74        
Feb 19 10:35 Calm 16.09 Clear   19 19     100%     1026.08        
Feb 19 10:15 Calm 16.09 Clear   18 18     100%     1026.08        
Feb 19 09:55 Calm 16.09 Clear   18 18     100%     1026.41        
Feb 19 09:35 Calm 16.09 Clear   17 17     100%     1026.41        
Feb 19 09:15 Calm 16.09 Clear   17 17     100%     1026.08        
Feb 19 08:55 Calm 11.27 Clear   16 16     100%     1026.08        
Feb 19 08:35 Calm 8.05 Clear   15 15     100%     1026.08        
Feb 19 08:15 Calm 4.02 Clear   14 14     100%     1026.08        
Feb 19 07:55 Calm   Clear   12 12     100%     1025.74        
Feb 19 07:35 Calm   Clear   11 11     100%     1025.74        
Feb 19 07:15 Calm   Clear   10 10     100%     1025.4        
Feb 19 06:55 Calm 1.61 Clear   9 9     100%     1025.4        
Feb 19 06:35 Calm 9.66 Clear   9 9     100%     1025.06        
Notice The following observation data may not be complete
Feb 19 06:15 Calm 1.21 Clear     8      %     1025.06